CW2303 Weather Reports


Display with metric or nautical units.
time (UTC)temp
F
wind
direction
speed
MPH
gust
MPH
rain 1hr
in
rain 24hr
in
rain mn
in
humidity
%
barometer
mb
20260503180059 72 204 3.0 11.0 0.00 0.00 0.00 46 1016.2
20260503175544 72 188 5.0 13.0 0.00 0.00 0.00 48 1016.2
20260503175043 72 200 5.0 13.0 0.00 0.00 0.00 49 1016.3
20260503174553 71 205 4.0 13.0 0.00 0.00 0.00 50 1016.5
20260503174045 71 221 6.0 13.0 0.00 0.00 0.00 49 1016.7
20260503173546 71 151 5.0 11.0 0.00 0.00 0.00 49 1016.8
20260503173110 71 210 5.0 11.0 0.00 0.00 0.00 50 1017.1
20260503172543 70 187 3.0 11.0 0.00 0.00 0.00 50 1017.0
20260503172045 71 219 5.0 11.0 0.00 0.00 0.00 49 1017.2
20260503171558 71 216 4.0 10.0 0.00 0.00 0.00 48 1017.3
20260503171044 70 176 4.0 10.0 0.00 0.00 0.00 51 1017.3
20260503170544 70 173 4.0 8.0 0.00 0.00 0.00 51 1017.3
20260503150543 62 164 4.0 11.0 0.00 0.00 0.00 50 1018.2
20260503150109 62 148 4.0 8.0 0.00 0.00 0.00 50 1018.2
20260503140108 57 180 3.0 9.0 0.00 0.00 0.00 59 1018.7
20260503131042 49 148 2.0 7.0 0.00 0.00 0.00 74 1018.9
20260503130545 48 155 2.0 6.0 0.00 0.00 0.00 76 1019.0
20260503110553 40 0 0.0 1.0 0.00 0.00 0.00 79 1018.7
20260503100106 41 0 0.0 1.0 0.00 0.00 0.00 79 1018.8
20260503081606 40 0 0.0 0.0 0.00 0.00 0.00 85 1019.4
20260503081043 40 0 0.0 0.0 0.00 0.00 0.00 84 1019.4
20260503080553 40 0 0.0 0.0 0.00 0.00 0.00 84 1019.4
20260503080436 40 0 0.0 0.0 0.00 0.00 0.00 84 1019.5
20260503072543 41 0 0.0 0.0 0.00 0.00 0.00 84 1019.8
20260503072043 41 0 0.0 0.0 0.00 0.00 0.00 84 1019.8
20260503071608 41 0 0.0 0.0 0.00 0.00 0.00 85 1019.8
20260503071044 41 0 0.0 0.0 0.00 0.00 0.00 85 1019.9
20260503070544 41 0 0.0 0.0 0.00 0.00 0.00 85 1019.9
20260503055043 42 0 0.0 1.0 0.00 0.00 0.00 85 1020.3
20260503054551 42 0 0.0 1.0 0.00 0.00 0.00 85 1020.3
20260503054045 42 0 0.0 1.0 0.00 0.00 0.00 84 1020.3
20260503053545 42 100 0.0 1.0 0.00 0.00 0.00 84 1020.4
20260503053049 42 0 0.0 0.0 0.00 0.00 0.00 83 1020.4
20260503052547 42 0 0.0 0.0 0.00 0.00 0.00 83 1020.4
20260503052048 43 0 0.0 0.0 0.00 0.00 0.00 83 1020.4
20260503051559 43 0 0.0 0.0 0.00 0.00 0.00 82 1020.3
20260503051048 43 0 0.0 0.0 0.00 0.00 0.00 82 1020.2
20260503050549 43 0 0.0 0.0 0.00 0.00 0.00 83 1020.2
20260503050053 43 0 0.0 0.0 0.00 0.00 0.00 83 1020.2
20260503045542 43 0 0.0 0.0 0.00 0.00 0.00 82 1020.3
20260503045045 43 0 0.0 0.0 0.00 0.00 0.00 82 1020.2
20260503044552 43 0 0.0 0.0 0.00 0.00 0.00 82 1020.3
20260503044043 43 0 0.0 0.0 0.00 0.00 0.00 82 1020.2
20260503043544 43 0 0.0 0.0 0.00 0.00 0.00 80 1020.2
20260503043055 43 0 0.0 0.0 0.00 0.00 0.00 80 1020.2
20260503042545 44 0 0.0 0.0 0.00 0.00 0.00 80 1020.2
20260503042044 44 0 0.0 0.0 0.00 0.00 0.00 80 1020.3
20260503041551 44 0 0.0 0.0 0.00 0.00 0.00 79 1020.2
20260503041045 44 0 0.0 0.0 0.00 0.00 0.00 79 1020.2
20260503040544 44 0 0.0 0.0 0.00 0.00 0.00 79 1020.2
20260503040054 44 0 0.0 0.0 0.00 0.00 0.00 79 1020.1
20260503035545 44 0 0.0 0.0 0.00 0.00 0.00 80 1020.1
20260503035045 44 0 0.0 0.0 0.00 0.00 0.00 80 1020.1
20260503034553 44 0 0.0 0.0 0.00 0.00 0.00 80 1020.2
20260503034042 44 0 0.0 0.0 0.00 0.00 0.00 80 1020.3
20260503033545 44 0 0.0 0.0 0.00 0.00 0.00 79 1020.2
20260503033052 45 0 0.0 0.0 0.00 0.00 0.00 78 1020.2
20260503032544 45 0 0.0 0.0 0.00 0.00 0.00 77 1020.3
20260503032044 45 0 0.0 0.0 0.00 0.00 0.00 76 1020.2
20260503031553 45 0 0.0 0.0 0.00 0.00 0.00 76 1020.2
20260503031046 46 0 0.0 0.0 0.00 0.00 0.00 75 1020.2
20260503030545 46 0 0.0 0.0 0.00 0.00 0.00 73 1020.1
20260503030054 46 0 0.0 0.0 0.00 0.00 0.00 72 1020.1
20260503025545 46 0 0.0 0.0 0.00 0.00 0.00 73 1020.1
20260503025045 46 0 0.0 0.0 0.00 0.00 0.00 74 1020.1
20260503024557 46 0 0.0 0.0 0.00 0.00 0.00 73 1020.0
20260503024042 46 0 0.0 0.0 0.00 0.00 0.00 73 1020.0
20260503023545 47 0 0.0 0.0 0.00 0.00 0.00 71 1020.0
20260503023054 47 0 0.0 0.0 0.00 0.00 0.00 70 1019.9
20260503022545 47 0 0.0 0.0 0.00 0.00 0.00 69 1019.9
20260503022045 47 0 0.0 0.0 0.00 0.00 0.00 70 1019.9
20260503021558 47 0 0.0 0.0 0.00 0.00 0.00 71 1019.9
20260503021044 48 0 0.0 0.0 0.00 0.00 0.00 71 1019.9
20260503020546 49 0 0.0 0.0 0.00 0.00 0.00 68 1019.7
20260503015545 50 0 0.0 0.0 0.00 0.00 0.00 61 1019.6
20260503015046 51 0 0.0 0.0 0.00 0.00 0.00 60 1019.6
20260503014622 51 0 0.0 0.0 0.00 0.00 0.00 58 1019.6
20260503014043 52 0 0.0 0.0 0.00 0.00 0.00 57 1019.6
20260503013543 52 0 0.0 0.0 0.00 0.00 0.00 56 1019.6
20260503013053 52 0 0.0 0.0 0.00 0.00 0.00 55 1019.7
20260503012545 53 0 0.0 1.0 0.00 0.00 0.00 56 1019.5
20260503012043 53 0 0.0 1.0 0.00 0.00 0.00 56 1019.4
20260503011616 53 0 0.0 1.0 0.00 0.00 0.00 55 1019.4
20260503011043 54 0 0.0 0.0 0.00 0.00 0.00 56 1019.4
20260503010547 54 0 0.0 1.0 0.00 0.00 0.00 53 1019.3
20260503010056 55 0 0.0 1.0 0.00 0.00 0.00 52 1019.4
20260503005543 55 0 0.0 1.0 0.00 0.00 0.00 51 1019.2
20260503005046 56 0 0.0 1.0 0.00 0.00 0.00 50 1019.3
20260503004601 56 0 0.0 1.0 0.00 0.00 0.00 50 1019.2
20260503004043 56 0 0.0 1.0 0.00 0.00 0.00 49 1019.3
20260503003543 57 342 0.0 2.0 0.00 0.00 0.00 48 1019.3
20260503003053 57 0 0.0 2.0 0.00 0.00 0.00 48 1019.2
20260503002543 58 309 0.0 2.0 0.00 0.00 0.00 48 1019.2
20260503002043 58 307 1.0 2.0 0.00 0.00 0.00 47 1019.1
20260503001555 58 321 0.0 2.0 0.00 0.00 0.00 47 1019.2
20260503001044 58 289 1.0 3.0 0.00 0.00 0.00 45 1019.1
20260503000543 59 297 1.0 3.0 0.00 0.00 0.00 44 1019.2
20260503000051 59 317 1.0 4.0 0.00 0.00 0.00 46 1019.2
20260502235543 59 306 0.0 10.0 0.00 0.00 0.00 45 1019.2
20260502235043 59 278 4.0 10.0 0.00 0.00 0.00 43 1019.1
20260502234555 59 348 1.0 8.0 0.00 0.00 0.00 41 1019.2
20260502234045 59 331 4.0 8.0 0.00 0.00 0.00 42 1019.2
20260502233542 60 17 3.0 8.0 0.00 0.00 0.00 42 1019.1
20260502233056 60 355 1.0 8.0 0.00 0.00 0.00 42 1019.2
20260502232542 60 290 2.0 8.0 0.00 0.00 0.00 41 1019.3
20260502232043 60 306 3.0 7.0 0.00 0.00 0.00 45 1019.3
20260502231552 60 319 2.0 4.0 0.00 0.00 0.00 40 1019.4
20260502231044 60 329 1.0 8.0 0.00 0.00 0.00 42 1019.4
20260502230544 60 282 3.0 8.0 0.00 0.00 0.00 41 1019.4
20260502230055 60 350 3.0 7.0 0.00 0.00 0.00 40 1019.5
20260502225544 60 342 3.0 7.0 0.00 0.00 0.00 43 1019.4
20260502225043 60 342 1.0 14.0 0.00 0.00 0.00 41 1019.4
20260502224604 60 22 4.0 14.0 0.00 0.00 0.00 40 1019.4
20260502224043 60 13 4.0 13.0 0.00 0.00 0.00 40 1019.4
20260502223543 60 19 4.0 10.0 0.00 0.00 0.00 43 1019.4
20260502223055 60 0 3.0 10.0 0.00 0.00 0.00 41 1019.4
20260502222543 60 10 4.0 10.0 0.00 0.00 0.00 40 1019.5
20260502222043 61 335 3.0 9.0 0.00 0.00 0.00 43 1019.4
20260502221551 60 269 3.0 9.0 0.00 0.00 0.00 40 1019.4
20260502221043 60 294 3.0 10.0 0.00 0.00 0.00 42 1019.4
20260502220545 60 289 3.0 10.0 0.00 0.00 0.00 40 1019.4
20260502220052 60 36 2.0 6.0 0.00 0.00 0.00 43 1019.4
20260502215543 60 301 2.0 10.0 0.00 0.00 0.00 41 1019.4
20260502215047 60 298 4.0 12.0 0.00 0.00 0.00 41 1019.5
20260502214551 61 258 7.0 12.0 0.00 0.00 0.00 39 1019.4
20260502214043 61 281 5.0 12.0 0.00 0.00 0.00 42 1019.4
20260502213543 60 284 6.0 11.0 0.00 0.00 0.00 46 1019.5
20260502213111 60 350 2.0 9.0 0.00 0.00 0.00 40 1019.5
20260502212544 60 307 4.0 12.0 0.00 0.00 0.00 43 1019.7
20260502212048 60 303 5.0 12.0 0.00 0.00 0.00 47 1019.6
20260502211629 60 282 6.0 12.0 0.00 0.00 0.00 38 1019.6
20260502211044 60 304 4.0 11.0 0.00 0.00 0.00 43 1019.5
20260502210545 60 284 4.0 10.0 0.00 0.00 0.00 40 1019.6
20260502210051 60 14 3.0 9.0 0.00 0.00 0.00 41 1019.5
20260502205543 60 287 3.0 7.0 0.00 0.00 0.00 40 1019.5
20260502205043 60 355 2.0 7.0 0.00 0.00 0.00 46 1019.7
20260502204556 60 286 3.0 12.0 0.00 0.00 0.00 44 1019.6
20260502204046 60 309 3.0 12.0 0.00 0.00 0.00 44 1019.8
20260502203543 60 293 5.0 12.0 0.00 0.00 0.00 43 1019.8
20260502203101 60 279 2.0 11.0 0.00 0.00 0.00 42 1019.9
20260502202541 60 37 2.0 9.0 0.00 0.00 0.00 43 1019.9
20260502202045 60 304 4.0 12.0 0.00 0.00 0.00 39 1020.0
20260502201555 60 315 2.0 12.0 0.00 0.00 0.00 44 1019.9
20260502201047 60 310 5.0 12.0 0.00 0.00 0.00 43 1020.1
20260502200544 60 274 3.0 9.0 0.00 0.00 0.00 48 1020.0
20260502200054 59 296 3.0 6.0 0.00 0.00 0.00 44 1020.0
20260502195544 59 295 2.0 8.0 0.00 0.00 0.00 43 1020.0
20260502195045 59 306 4.0 8.0 0.00 0.00 0.00 42 1020.0
20260502194606 59 22 2.0 12.0 0.00 0.00 0.00 50 1020.1
20260502194045 59 265 4.0 12.0 0.00 0.00 0.00 42 1020.1
20260502193550 60 272 4.0 11.0 0.00 0.00 0.00 49 1020.1
20260502193055 59 36 3.0 13.0 0.00 0.00 0.00 48 1020.1
20260502192545 58 16 6.0 13.0 0.00 0.00 0.00 42 1020.1
20260502192045 57 301 3.0 10.0 0.00 0.00 0.00 43 1020.1
20260502191601 58 299 3.0 10.0 0.00 0.00 0.00 44 1020.2
20260502191045 58 36 3.0 12.0 0.00 0.00 0.00 48 1020.2
20260502190545 58 31 1.0 12.0 0.00 0.00 0.00 44 1020.3
20260502190058 59 334 3.0 9.0 0.00 0.00 0.00 43 1020.3
20260502185545 59 288 5.0 9.0 0.00 0.00 0.00 41 1020.2
20260502185044 59 24 4.0 13.0 0.00 0.00 0.00 44 1020.2
20260502184559 58 306 5.0 13.0 0.00 0.00 0.00 42 1020.2
20260502184044 58 299 5.0 16.0 0.00 0.00 0.00 46 1020.2
20260502183545 58 16 6.0 16.0 0.00 0.00 0.00 44 1020.3
20260502183106 58 325 5.0 11.0 0.00 0.00 0.00 43 1020.3
20260502182542 58 317 4.0 11.0 0.00 0.00 0.00 44 1020.3
20260502182045 57 298 5.0 11.0 0.00 0.00 0.00 46 1020.4
20260502181556 58 10 2.0 10.0 0.00 0.00 0.00 47 1020.4
20260502181042 58 300 3.0 11.0 0.00 0.00 0.00 48 1020.5
20260502180545 57 341 6.0 11.0 0.00 0.00 0.00 43 1020.5